Burns, OR

12:12 PM PDT on April 20, 2018 (GMT -0700)
Burns Municipal

Weather History for KBNO - July, 2013

Change the Weather History Date:

Tuesday, July 16, 2013

  Actual Average Record
Temperature  
Mean Temperature 79 °F 67 °F  
Max Temperature 97 °F 87 °F 97 °F (1959)
Min Temperature 60 °F 48 °F 33 °F (1987)
Degree Days  
Heating Degree Days 0 2  
Month to date heating degree days 3 40  
Since 1 June heating degree days 191 258  
Since 1 July heating degree days 3 40  
Cooling Degree Days 14 4  
Month to date cooling degree days 121 46  
Year to date cooling degree days 176 69  
Since 1 June cooling degree days 175 66  
Growing Degree Days 28 (Base 50)    
Moisture  
Dew Point 40 °F    
Average Humidity 29    
Maximum Humidity 44    
Minimum Humidity 14    
Precipitation  
Precipitation T in 0.01 in 0.09 in (2001)
Month to date precipitation T 0.22  
Year to date precipitation 3.41 6.44  
Sea Level Pressure  
Sea Level Pressure 29.78 in    
Wind  
Wind Speed 9 mph (WSW)    
Max Wind Speed 21 mph    
Max Gust Speed 24 mph    
Visibility 10 miles    
Events Rain , Thunderstorm    
T = Trace of Precipitation, MM = Missing Value Source: NWS Daily Summary

Daily Weather History Graph

Daily Weather History Graph

Search for Another Location

Airport or City:

Astronomy

Jul. 16, 2013 Rise Set
Actual Time 5:29 AM PDT 8:33 PM PDT
Civil Twilight 4:55 AM PDT 9:08 PM PDT
Nautical Twilight 4:10 AM PDT 9:52 PM PDT
Astronomical Twilight 3:17 AM PDT 10:44 PM PDT
Moon 2:16 PM PDT (7/16) 12:07 AM PDT (7/16)
Length of Visible Light 16h 13m
Length of Day
15h 04m
First Quarter, 57% of the Moon is Illuminated
Jul 16
First Quarter
Jul 22
Full
Jul 29
Last Quarter
Aug 6
New
Aug 14
First Quarter

Hourly Weather History & Observations

Time (PDT) Temp. Dew Point Humidity Pressure Visibility Wind Dir Wind Speed Gust Speed Precip Events Conditions
12:53 AM 64.9 °F 37.9 °F 37% 29.77 in 10.0 mi West 8.1 mph - N/A   Clear
1:53 AM 63.0 °F 37.9 °F 40% 29.77 in 10.0 mi West 9.2 mph - N/A   Clear
2:53 AM 60.1 °F 37.0 °F 42% 29.77 in 10.0 mi WSW 8.1 mph - N/A   Clear
3:53 AM 64.0 °F 37.0 °F 37% 29.75 in 10.0 mi West 9.2 mph - N/A   Clear
4:53 AM 63.0 °F 37.0 °F 38% 29.75 in 10.0 mi WSW 6.9 mph - N/A   Clear
5:53 AM 62.1 °F 39.0 °F 43% 29.79 in 10.0 mi SSE 9.2 mph - N/A Thunderstorm Clear
6:14 AM 60.8 °F 39.2 °F 45% 29.93 in 10.0 mi WSW 5.8 mph - N/A   Clear
6:53 AM 62.1 °F 42.1 °F 48% 29.81 in 10.0 mi NNW 3.5 mph - N/A   Clear
7:53 AM 64.9 °F 43.0 °F 45% 29.78 in 10.0 mi West 8.1 mph - N/A   Clear
8:53 AM 73.0 °F 42.1 °F 33% 29.77 in 10.0 mi NNW 5.8 mph - 0.00 in Rain Light Rain
9:53 AM 78.1 °F 42.1 °F 28% 29.79 in 10.0 mi South 15.0 mph - 0.00 in   Clear
10:53 AM 82.9 °F 42.1 °F 24% 29.79 in 10.0 mi SSE 11.5 mph 17.3 mph N/A   Clear
11:53 AM 86.0 °F 42.1 °F 21% 29.79 in 10.0 mi SSE 5.8 mph - N/A   Clear
12:53 PM 89.1 °F 42.1 °F 19% 29.77 in 10.0 mi South 8.1 mph - N/A   Clear
1:53 PM 91.9 °F 43.0 °F 18% 29.75 in 10.0 mi SW 10.4 mph - N/A   Clear
2:53 PM 93.9 °F 42.1 °F 17% 29.74 in 10.0 mi SW 10.4 mph - N/A   Clear
3:53 PM 95.0 °F 41.0 °F 15% 29.72 in 10.0 mi SW 12.7 mph 19.6 mph N/A   Clear
4:53 PM 96.1 °F 39.0 °F 14% 29.71 in 10.0 mi WSW 11.5 mph - N/A   Clear
5:53 PM 93.9 °F 37.9 °F 14% 29.71 in 10.0 mi SW 10.4 mph - N/A   Clear
6:53 PM 91.9 °F 39.9 °F 16% 29.72 in 10.0 mi SW 11.5 mph - N/A   Clear
7:53 PM 86.0 °F 39.0 °F 19% 29.75 in 10.0 mi SW 8.1 mph - N/A   Clear
8:53 PM 82.0 °F 37.9 °F 21% 29.77 in 10.0 mi SW 11.5 mph - N/A   Clear
9:53 PM 78.1 °F 41.0 °F 27% 29.81 in 10.0 mi WSW 11.5 mph - N/A   Clear
10:53 PM 70.0 °F 43.0 °F 38% 29.84 in 10.0 mi WNW 9.2 mph - N/A   Clear
11:53 PM 69.1 °F 39.9 °F 35% 29.85 in 10.0 mi WNW 6.9 mph - N/A   Clear